GFSNW_con_lsi_336.txt.gz
Lid_Strength_Index
-1 -1 -1 -1 -1 -1 2 4 10 3 1 10 9 12 10 8 9 7 9 10 11 12 11 13 13 13 11 9 10 13 12 15 19 18 16 15 16 16 16 17 20 21 20 20
-1 -1 -1 -1 -1 -1 3 7 7 2 3 13 12 10 10 9 9 9 10 11 10 10 12 14 12 11 10 10 10 12 11 14 18 18 16 16 17 17 16 16 17 20 20 20
-1 -1 -1 -1 -1 -1 2 6 11 8 6 7 10 12 11 12 8 9 9 10 9 11 12 11 12 12 11 10 10 8 9 14 15 17 16 16 19 18 17 16 18 18 18 19
-1 -1 -1 -1 -1 -1 2 7 10 10 12 10 10 10 10 12 11 8 8 11 11 12 14 13 13 11 12 11 9 10 11 15 14 17 15 15 16 16 17 18 16 17 16 18
-1 -1 -0 -1 -1 -1 4 8 9 11 10 9 10 10 12 12 11 10 11 12 11 11 13 12 14 11 13 13 11 11 11 16 15 15 17 16 17 17 16 16 17 16 20 20
-1 -1 -1 -1 -1 -0 5 4 5 8 10 10 11 11 10 11 10 9 9 11 12 12 10 9 9 8 9 10 11 11 12 15 15 18 16 15 17 16 17 16 15 15 18 15
-1 -1 -1 -1 -1 -0 4 4 6 9 17 10 10 9 9 10 10 11 9 10 12 11 7 7 8 9 9 9 9 8 12 14 15 20 16 21 14 14 13 15 15 14 16 15
-1 -1 -1 -1 -1 -0 3 3 5 7 14 9 9 9 10 9 8 9 9 9 9 9 8 11 14 13 13 12 10 10 10 14 18 18 20 16 15 16 16 15 15 13 14 14
-1 -1 -1 -1 -1 -0 1 3 4 8 10 11 8 9 9 10 12 10 9 7 7 8 11 12 17 18 15 16 14 12 10 10 13 17 19 21 15 14 13 13 17 13 13 13
-0 -0 -1 -1 -1 -0 1 3 2 4 10 9 7 10 10 8 9 10 11 9 10 7 12 14 16 17 14 16 16 15 14 14 16 17 23 18 14 14 12 18 16 13 12 13
-0 -0 -0 -0 -1 -0 1 4 2 4 10 9 5 5 8 8 7 11 11 11 10 11 13 13 14 15 15 15 15 14 15 16 17 17 24 20 13 14 14 13 14 13 12 12
-0 -0 -0 -0 -0 -0 0 5 2 2 8 9 5 4 4 4 5 6 7 9 11 8 11 11 13 16 15 15 17 13 16 14 17 15 14 13 11 13 12 13 13 14 12 11
0 -0 -0 -0 -0 -0 1 4 2 3 6 7 7 8 5 3 4 3 8 7 7 8 8 11 11 15 12 15 16 15 14 14 15 15 13 13 12 12 12 11 13 13 12 12
1 0 -0 -0 -0 -0 0 3 2 4 6 10 12 5 6 4 3 3 4 5 5 6 7 11 12 12 12 14 13 13 14 14 17 16 14 13 13 13 11 12 13 13 12 11
0 0 -0 -0 -0 -0 1 2 2 2 6 13 15 6 5 5 4 5 5 5 6 7 9 15 14 12 12 12 13 15 14 14 13 15 12 12 12 11 11 12 12 13 13 13
0 -0 -0 -0 -0 -0 4 6 3 3 4 11 12 11 7 5 5 5 6 6 7 7 8 10 13 11 11 14 14 11 11 12 11 11 12 12 12 11 11 12 12 12 12 12
-0 -0 -0 -0 -0 2 6 9 6 1 3 9 16 15 7 5 5 6 6 5 7 7 8 9 10 10 11 15 17 12 11 11 12 12 12 13 12 12 13 13 15 15 15 14
-0 -0 -0 -0 -0 1 5 3 0 1 5 7 15 12 10 6 8 9 6 8 7 8 9 10 11 11 11 17 11 11 12 12 13 11 11 10 13 15 17 15 14 15 16 16
-0 -0 -0 3 4 6 4 0 1 4 6 11 12 12 14 9 10 9 9 8 11 10 12 11 10 12 13 12 13 12 11 12 12 14 15 13 14 15 15 14 15 16 17 17
-0 3 6 8 5 1 2 5 7 8 10 13 16 14 13 10 12 13 12 14 13 16 15 12 13 15 15 16 16 16 14 13 14 13 17 16 16 15 15 15 15 15 16 16
6 8 10 5 2 7 9 12 11 12 13 16 16 15 14 11 13 16 12 16 17 16 15 14 15 16 16 19 19 19 19 17 17 16 12 12 13 15 17 17 17 17 17 19
5 6 6 8 10 13 16 16 18 18 19 16 14 14 12 12 11 13 16 19 20 19 17 16 16 18 22 22 23 22 21 20 19 17 16 16 16 16 17 19 20 21 20 20
8 10 12 11 15 16 22 23 21 20 21 16 16 16 15 14 14 16 16 16 18 20 21 19 21 24 24 24 24 23 22 20 20 21 21 21 20 20 19 21 20 20 20 20
16 15 16 16 19 20 25 24 24 21 19 17 15 18 15 19 19 21 19 22 22 19 20 22 24 26 25 25 24 23 23 22 22 22 22 22 23 24 24 22 21 20 22 22
21 20 21 21 24 23 26 29 26 21 19 15 15 16 16 19 19 23 22 20 20 21 21 27 28 28 26 26 25 25 24 23 23 22 23 24 23 24 26 24 23 23 24 25
24 25 25 28 25 27 25 26 24 19 18 15 14 15 18 21 22 22 25 23 23 26 32 31 30 29 29 29 28 27 26 24 24 23 23 24 24 25 26 25 25 24 24 25
27 28 29 30 30 27 26 26 24 20 18 15 18 18 19 25 27 31 37 32 34 33 32 31 31 29 29 29 29 28 27 26 25 25 25 25 25 24 24 26 27 27 27 29

GFSNW_con_lsi_339.txt.gz
Lid_Strength_Index
-1 -1 -1 -1 -1 -1 0 4 10 3 1 9 9 12 10 7 9 7 9 10 11 12 11 13 13 13 13 9 10 13 12 14 20 17 14 14 16 16 16 18 21 21 20 19
-1 -1 -1 -1 -1 -1 2 7 7 2 3 12 12 10 10 8 9 9 9 11 10 10 12 14 12 11 10 10 10 11 11 14 19 17 15 15 17 16 16 16 17 20 20 18
-1 -1 -1 -1 -1 -1 2 6 11 7 6 7 10 11 11 12 8 9 8 9 9 11 12 10 13 12 10 10 9 8 8 15 14 17 16 15 17 16 15 16 18 18 19 17
-1 -1 -1 -1 -1 -1 2 7 9 7 12 10 10 9 11 12 12 9 8 10 10 11 13 12 13 11 11 10 9 10 10 14 15 17 15 14 14 15 15 16 15 17 17 19
-1 -1 -1 -1 -1 -1 4 9 9 8 12 8 10 9 11 12 11 10 11 11 10 10 13 12 13 11 11 12 10 10 12 17 17 18 18 16 16 14 14 15 15 15 19 19
-1 -1 -1 -1 -1 -0 5 5 5 7 9 10 11 11 10 10 10 9 9 9 10 11 12 10 11 10 10 10 11 12 13 15 16 17 18 15 17 15 15 15 14 14 18 15
-1 -1 -1 -1 -1 -0 2 4 6 9 13 11 11 10 9 10 10 11 10 9 10 8 6 8 9 10 11 10 9 9 12 12 14 18 15 21 13 11 13 14 13 13 13 14
-1 -1 -1 -1 -1 -1 2 4 6 8 14 10 10 9 9 9 9 10 9 9 7 6 7 12 14 13 13 12 10 9 9 12 16 17 18 16 15 14 13 14 13 12 13 12
-1 -1 -1 -1 -1 -1 2 5 3 8 12 12 8 10 9 11 11 11 9 7 6 6 9 12 16 18 18 16 14 9 10 10 14 17 20 20 14 14 11 11 15 10 11 12
-0 -1 -1 -1 -1 -1 1 3 3 5 10 9 8 10 10 9 10 12 12 10 9 7 11 15 16 17 15 17 16 15 14 14 16 16 18 17 13 14 10 16 13 10 10 11
-0 -0 -0 -0 -0 -1 1 4 1 5 9 9 7 7 10 9 8 13 11 12 11 10 13 14 14 15 15 16 15 15 15 16 16 15 18 19 13 13 13 11 13 12 10 10
-0 -0 -0 -0 -0 -0 -0 5 1 2 6 9 5 6 6 5 5 7 9 10 12 8 11 11 12 14 15 14 18 13 17 13 15 13 14 13 11 12 11 12 12 12 11 11
-0 -0 -0 -0 -0 -0 1 4 3 4 6 7 8 8 6 4 4 4 9 9 7 9 7 10 10 13 12 16 15 16 14 12 14 13 12 13 12 13 12 12 12 13 12 11
-0 -0 -0 -0 -0 -0 0 3 2 4 8 13 12 5 6 5 3 4 4 5 5 6 8 11 11 13 10 12 13 13 13 12 15 15 14 13 13 12 12 12 12 12 12 11
0 1 0 0 -0 -0 2 2 2 3 7 13 14 7 6 5 4 4 4 5 6 7 10 13 13 11 11 11 12 13 12 12 13 14 12 12 12 12 11 12 12 12 12 12
0 1 -0 0 -0 0 3 6 2 1 3 9 12 11 7 6 5 5 5 5 6 6 8 11 13 11 9 13 14 12 11 11 11 12 11 12 12 12 12 12 13 13 12 12
0 0 -0 -0 -0 3 5 7 6 1 3 9 15 15 8 5 5 7 6 6 9 8 8 11 9 9 9 15 15 12 10 9 10 11 11 11 13 12 13 13 14 15 14 12
0 0 -0 -0 -0 1 4 2 0 1 6 10 17 17 11 5 8 9 6 7 7 8 10 10 11 10 10 14 12 10 10 10 11 12 11 11 13 15 16 15 13 14 15 15
-0 -0 -0 2 4 7 5 0 2 5 9 14 18 16 16 6 8 8 7 7 10 12 10 14 10 17 13 11 11 12 12 12 11 14 15 17 15 15 15 15 15 16 17 16
-0 4 8 10 5 0 1 4 6 7 13 17 19 18 12 9 12 11 13 12 14 15 15 11 11 16 12 15 16 16 16 16 15 14 16 18 17 15 15 14 15 15 16 17
6 13 14 5 2 6 9 11 10 12 13 17 20 16 12 10 13 16 12 14 16 17 17 14 14 18 14 18 18 18 19 19 18 18 15 14 13 14 16 16 15 16 16 18
7 6 5 6 9 12 13 15 15 14 18 18 17 14 12 11 10 13 13 16 16 17 16 15 22 18 22 22 21 21 21 21 20 19 15 15 14 14 15 16 16 17 19 19
9 8 11 10 13 17 21 17 22 21 20 18 16 15 13 13 12 15 15 16 17 18 20 21 22 23 23 23 22 23 22 22 19 18 17 18 19 18 18 19 18 18 18 19
12 14 16 17 17 25 26 25 24 21 19 17 14 16 15 18 18 19 17 21 20 21 23 21 26 27 26 24 23 22 23 21 20 20 21 21 21 20 18 18 18 18 19 19
18 16 17 23 24 27 29 29 25 21 19 17 16 16 15 21 19 21 20 20 18 21 24 29 29 28 28 27 26 25 23 22 21 21 22 22 22 22 23 21 20 20 21 21
24 26 24 25 22 23 25 26 25 21 21 17 14 14 19 23 20 21 25 21 20 26 31 31 30 28 28 28 28 26 24 22 23 23 22 22 22 23 24 23 23 23 22 22
27 28 31 30 28 28 28 28 25 21 22 18 19 16 21 24 28 30 34 30 33 34 32 31 31 31 30 28 28 27 25 23 24 24 23 23 22 21 22 25 26 26 26 26

GFSNW_con_lsi_342.txt.gz
Lid_Strength_Index
-1 -2 -1 -2 -1 -2 -0 4 10 1 0 9 9 11 10 7 8 7 9 10 10 10 10 12 13 12 11 8 8 11 9 11 15 14 12 11 11 13 14 17 17 16 16 16
-1 -1 -1 -1 -1 -1 2 6 7 1 2 12 11 9 9 8 9 8 9 10 9 9 10 13 11 11 8 8 8 10 9 14 17 15 12 12 14 13 12 12 14 16 16 16
-1 -1 -1 -1 -1 -1 2 6 10 7 6 6 9 11 11 11 7 8 8 8 8 9 10 9 11 11 8 7 7 7 7 12 14 16 14 12 15 13 12 12 15 15 15 14
-1 -1 -1 -1 -1 -1 2 6 9 7 11 10 9 9 9 11 12 8 8 9 10 11 13 12 11 9 9 8 7 8 9 14 13 12 11 10 11 13 13 14 12 14 13 14
-1 -1 -1 -1 -1 -1 3 8 8 7 8 7 9 9 11 11 10 10 11 11 9 10 12 11 12 10 10 11 9 10 9 15 13 14 13 12 13 12 13 13 13 12 13 14
-1 -1 -1 -1 -1 -0 5 4 4 6 8 9 10 10 9 10 8 9 8 9 9 10 9 7 8 7 8 9 10 11 12 13 15 17 14 13 16 13 13 13 11 11 14 12
-1 -1 -1 -1 -1 -1 2 3 4 8 11 9 10 9 8 9 9 10 8 8 10 8 5 5 7 9 9 9 10 10 12 13 14 16 15 21 13 8 10 12 11 10 10 9
-1 -1 -1 -1 -1 -1 2 2 4 7 11 9 9 9 9 8 7 8 8 7 6 5 7 11 13 13 12 12 10 11 10 12 15 17 18 14 12 10 11 12 12 9 10 9
-1 -1 -1 -1 -1 -1 1 2 2 5 9 10 7 9 8 10 10 9 8 6 5 6 9 12 16 17 14 15 13 9 10 10 13 16 19 20 12 9 8 8 14 7 9 9
-0 -1 -1 -1 -1 -1 1 2 1 4 8 7 6 9 9 7 8 10 8 8 8 6 11 14 15 16 12 16 16 15 14 14 16 16 17 14 9 9 7 15 12 6 6 8
-0 -1 -1 -1 -1 -1 1 2 1 4 7 7 6 5 7 7 7 10 8 9 9 10 13 13 13 14 13 13 12 13 15 16 16 15 17 18 9 8 12 8 8 8 7 6
-0 -0 -0 -1 -1 -1 -0 4 1 1 5 5 4 4 4 3 4 6 6 8 8 8 10 11 11 13 12 13 15 10 15 14 15 14 14 8 8 7 6 7 7 8 8 7
-0 -0 -0 -1 -1 -1 -0 2 2 3 6 6 6 6 4 2 3 2 7 6 6 7 5 8 10 12 10 13 13 12 11 11 14 13 10 10 9 8 7 9 8 8 9 8
-0 -0 -0 -0 -0 -0 -0 2 1 3 5 9 8 5 5 3 2 2 3 4 4 4 5 8 10 11 8 11 11 11 10 11 12 12 11 9 9 8 8 8 9 9 9 8
-0 -0 -0 -0 -0 -0 0 1 1 1 5 9 9 6 4 3 3 3 3 4 5 7 8 9 10 8 9 9 9 11 9 11 13 13 11 11 10 9 9 9 9 9 10 9
-0 0 0 -0 -0 -0 2 6 2 1 3 8 11 7 7 5 4 4 5 4 5 6 8 8 8 8 8 12 12 9 9 9 9 11 9 10 10 9 9 10 10 10 10 9
0 1 -0 -0 -0 1 4 6 3 0 2 7 10 9 7 5 5 5 5 5 6 6 8 9 8 8 8 10 12 9 9 8 9 8 10 11 10 10 10 11 11 12 12 11
0 0 -0 0 -0 1 4 1 0 1 5 7 12 11 8 5 7 8 5 7 6 7 8 8 9 8 9 12 9 8 9 8 8 8 9 10 10 12 14 13 12 13 12 13
0 -0 -0 3 4 5 4 0 1 4 5 10 10 12 13 6 7 7 7 6 10 7 9 9 9 10 13 10 8 8 7 9 9 10 12 12 11 12 14 14 14 14 15 14
0 4 6 7 5 0 2 5 6 6 9 11 11 13 11 7 8 9 9 8 10 12 10 8 10 11 8 9 10 10 10 11 11 13 14 14 13 14 14 14 14 13 14 15
6 9 8 5 2 5 7 9 10 12 13 13 13 12 11 8 11 10 9 11 11 14 11 11 12 13 10 15 14 15 16 15 16 15 14 14 12 13 15 15 14 15 15 16
6 5 4 5 8 10 13 14 15 13 14 15 13 12 10 10 8 10 12 12 13 15 11 12 14 14 21 21 20 19 18 18 18 17 15 14 12 12 13 14 15 15 17 17
6 9 10 9 12 14 14 17 18 17 16 15 13 12 11 11 10 12 13 15 15 14 15 14 16 22 23 24 22 21 19 19 19 17 16 15 15 13 13 15 17 17 17 17
12 12 14 14 16 16 20 19 19 18 17 16 13 14 13 14 14 15 16 17 17 18 19 16 24 27 26 25 24 22 20 18 18 18 17 17 17 17 17 17 16 17 18 18
14 13 16 19 22 22 23 24 22 20 19 17 14 15 14 16 17 18 17 19 18 18 19 26 28 29 27 26 25 24 21 20 19 18 18 17 17 18 18 18 17 18 18 18
19 23 21 23 22 22 23 24 22 21 21 19 16 14 15 18 19 18 19 19 18 26 30 30 29 29 29 28 26 24 21 20 20 19 18 19 19 20 20 20 19 19 20 20
25 26 28 26 25 26 26 26 25 22 22 17 17 15 17 22 23 24 32 29 31 32 31 29 30 30 29 28 26 25 22 22 21 21 20 20 20 21 21 23 24 23 24 24

GFSNW_con_lsi_345.txt.gz
Lid_Strength_Index
-2 -1 -1 -2 -2 -1 -0 4 10 1 0 9 9 11 11 9 9 7 8 8 10 11 10 11 12 12 11 8 7 11 9 11 15 14 9 9 10 12 12 14 16 13 14 14
-2 -2 -1 -1 -2 -1 2 7 7 1 2 12 11 9 9 9 9 8 9 10 9 8 10 12 10 10 7 6 7 10 9 14 17 16 12 10 13 11 10 11 11 15 16 15
-1 -1 -1 -1 -1 -1 1 6 10 7 6 6 9 11 10 11 7 9 7 9 8 9 10 8 10 10 7 6 7 7 7 12 14 16 14 12 15 13 11 11 14 14 13 12
-1 -1 -1 -1 -1 -1 2 6 8 7 11 10 9 8 9 11 12 8 8 10 9 11 13 12 11 9 8 7 7 8 9 15 13 12 10 10 11 12 12 13 12 14 12 13
-1 -1 -1 -1 -1 -1 3 7 8 7 8 7 9 9 10 11 10 9 10 11 10 9 12 11 12 9 9 10 8 9 9 15 13 14 12 12 13 11 12 12 12 12 11 13
-1 -1 -1 -1 -1 -1 5 4 3 6 8 9 10 10 9 9 8 8 7 8 9 10 9 7 7 6 6 7 9 11 11 14 15 17 13 13 17 13 12 12 11 10 13 10
-1 -1 -1 -1 -1 -0 2 3 4 8 10 9 10 9 8 8 8 9 7 7 9 7 4 5 6 7 8 8 9 9 12 13 14 16 14 21 12 8 8 10 10 9 9 9
-1 -1 -1 -1 -1 -1 1 2 4 7 10 8 8 8 8 7 7 8 7 6 5 5 6 11 13 12 12 11 10 10 9 12 16 17 17 14 12 10 10 11 11 9 9 8
-0 -1 -1 -1 -1 -1 1 1 1 5 9 9 7 8 8 10 9 9 8 5 4 5 9 12 16 17 14 15 13 9 10 10 14 16 18 20 11 8 7 7 14 7 7 8
-1 -1 -1 -1 -1 -1 1 2 0 4 8 6 6 9 9 7 8 9 8 7 8 6 11 14 15 15 11 16 15 14 14 14 16 16 17 15 9 7 6 15 13 7 6 7
-0 -0 -0 -0 -1 -1 0 2 0 3 6 5 5 5 7 7 8 11 8 9 9 10 13 13 13 14 13 13 12 13 15 15 16 15 17 19 7 8 11 8 6 6 6 6
-0 -0 -0 -0 -0 -1 -0 4 0 0 5 5 3 3 2 3 4 6 7 8 8 8 10 11 10 13 12 13 16 10 15 12 14 13 13 10 8 8 7 5 6 6 6 5
-0 -0 -0 -0 -0 -1 -0 2 1 2 5 5 5 5 3 2 2 2 7 6 5 7 5 8 9 12 10 14 13 11 10 8 11 12 11 10 8 7 7 7 7 6 6 5
-0 -0 -0 -0 -0 -0 -0 2 1 2 5 8 7 3 4 2 2 2 3 4 4 4 5 8 9 11 8 11 10 11 10 9 11 11 10 10 9 8 8 7 7 7 7 7
-0 -0 -0 -0 -0 -0 0 0 1 1 5 9 7 5 4 3 2 3 3 4 4 6 8 9 10 8 8 8 9 11 9 10 12 12 9 10 10 9 7 8 8 8 8 8
-0 -0 -0 -0 -0 -0 2 6 1 0 1 7 10 5 6 4 3 4 4 4 4 5 7 8 7 7 8 11 12 8 7 7 7 8 8 9 9 9 8 8 8 8 7 7
-0 -0 -0 -0 -0 1 4 5 2 0 1 7 10 9 7 5 4 5 5 4 6 6 7 8 8 8 8 10 12 8 7 6 6 6 7 10 9 9 9 9 9 11 11 10
0 0 -0 -0 -0 0 3 1 0 0 4 5 10 10 9 5 7 8 5 7 6 7 8 8 9 8 8 12 9 7 6 6 7 6 7 7 9 10 12 13 12 12 11 11
0 -0 0 2 3 5 4 0 -0 1 4 9 9 11 12 5 7 6 7 6 10 7 9 9 8 10 12 9 8 7 7 7 7 6 8 8 10 10 11 11 13 13 12 13
2 3 5 7 4 0 1 4 6 6 6 7 9 8 10 7 7 9 8 8 10 12 10 7 10 11 7 7 6 7 7 7 8 11 11 11 10 11 12 12 12 12 13 14
4 6 6 5 2 4 6 8 9 8 10 9 8 8 9 6 10 10 7 10 10 13 11 11 12 12 8 10 10 12 13 13 12 13 13 12 11 11 12 13 12 13 14 15
4 4 4 4 6 9 11 12 11 10 11 11 10 9 7 8 6 9 10 11 10 14 9 12 13 10 19 19 18 17 17 16 17 16 15 15 13 11 11 12 13 14 14 17
3 5 7 8 10 12 13 15 14 14 13 11 11 11 8 9 8 9 11 13 13 11 12 13 11 21 22 23 23 22 20 18 17 17 15 15 12 11 11 12 14 17 17 17
8 9 14 12 13 13 14 14 14 16 14 13 11 10 10 9 11 10 13 13 14 15 15 14 20 26 26 25 23 23 22 19 17 16 15 14 12 12 13 14 16 16 17 16
12 11 13 15 19 19 19 19 18 18 18 16 13 13 12 13 13 14 15 17 17 15 16 22 25 27 27 26 26 24 23 20 17 15 14 15 16 15 16 15 15 15 16 17
15 18 17 19 17 18 19 20 19 19 20 18 16 13 15 15 16 18 17 17 17 24 27 27 26 27 28 27 26 25 23 20 17 16 16 15 16 16 16 16 17 16 16 18
18 22 23 22 21 22 22 23 22 21 20 14 15 14 17 19 19 21 27 26 29 29 28 27 27 28 28 27 26 24 23 19 17 17 17 17 17 17 18 19 18 18 19 19